Fairchild Air Force Base, WA

2:56 AM PDT on August 30, 2016 (GMT -0700)
Fairchild Air Force Base

Weather History for KSKA - November, 2012

Change the Weather History Date:

Friday, November 30, 2012

  Actual Average Record
Temperature  
Mean Temperature 46 °F -  
Max Temperature 50 °F 35 °F 50 °F (2012)
Min Temperature 42 °F 26 °F 8 °F (2014)
Degree Days  
Heating Degree Days 19    
Moisture  
Dew Point 45 °F    
Average Humidity 100    
Maximum Humidity 100    
Minimum Humidity 99    
Precipitation  
Precipitation 0.18 in - - ()
Sea Level Pressure  
Sea Level Pressure 29.57 in    
Wind  
Wind Speed 8 mph (SSE)    
Max Wind Speed 21 mph    
Max Gust Speed 24 mph    
Visibility 10 miles    
Events Rain    
Averages and records for this station are not official NWS values.
T = Trace of Precipitation, MM = Missing Value Source: NWS Daily Summary

Daily Weather History Graph

Daily Weather History Graph

Search for Another Location

Airport or City:

Trip Planner

Search our weather history database for the weather conditions in past years. The results will help you decide how hot, cold, wet, or windy it might be!

Date:

Astronomy

Nov. 30, 2012 Rise Set
Actual Time 7:17 AM PST 4:01 PM PST
Civil Twilight 6:42 AM PST 4:36 PM PST
Nautical Twilight 6:03 AM PST 5:15 PM PST
Astronomical Twilight 5:26 AM PST 5:52 PM PST
Moon 6:01 PM PST 8:52 AM PST
Length of Visible Light 9h 54m
Length of Day
8h 43m
Waning Gibbous, 96% of the Moon is Illuminated
Nov 30
Waning Gibbous
Dec 6
Last Quarter
Dec 13
New
Dec 19
First Quarter
Dec 28
Full

Hourly Weather History & Observations

Time (PST) Temp. Windchill Dew Point Humidity Pressure Visibility Wind Dir Wind Speed Gust Speed Precip Events Conditions
12:28 AM 44.6 °F 41.4 °F 44.6 °F 100% 29.60 in 10.0 mi SE 5.8 mph - N/A Rain Light Rain
12:38 AM 44.6 °F 41.4 °F 44.6 °F 100% 29.59 in 10.0 mi SE 5.8 mph - N/A Rain Light Rain
12:43 AM 44.6 °F 41.4 °F 44.6 °F 100% 29.59 in 10.0 mi SE 5.8 mph - N/A Rain Light Rain
12:58 AM 43.7 °F 39.1 °F 43.7 °F 100% 29.62 in 10.0 mi SE 8.1 mph - 0.01 in Rain Light Rain
1:53 AM 44.6 °F 39.2 °F 44.6 °F 100% 29.56 in 10.0 mi SE 10.4 mph - N/A Rain Light Rain
1:58 AM 43.9 °F 38.3 °F 43.9 °F 100% 29.58 in 10.0 mi SE 10.4 mph - 0.00 in Rain Light Rain
2:03 AM 44.6 °F 39.2 °F 44.6 °F 100% 29.56 in 10.0 mi SSE 10.4 mph - N/A Rain Light Rain
2:06 AM 44.6 °F 39.2 °F 44.6 °F 100% 29.56 in 10.0 mi SSE 10.4 mph - N/A   Mostly Cloudy
2:09 AM 44.6 °F 38.4 °F 44.6 °F 100% 29.56 in 10.0 mi SSE 12.7 mph 18.4 mph N/A Rain Light Rain
2:52 AM 44.6 °F 38.8 °F 44.6 °F 100% 29.54 in 10.0 mi SSE 11.5 mph - N/A   Overcast
2:58 AM 43.9 °F 38.3 °F 43.9 °F 100% 29.57 in 10.0 mi SSE 10.4 mph - 0.00 in   Overcast
3:07 AM 44.6 °F 39.2 °F 44.6 °F 100% 29.53 in 10.0 mi SSE 10.4 mph - N/A Rain Light Rain
3:52 AM 44.6 °F 39.7 °F 44.6 °F 100% 29.53 in 10.0 mi SSE 9.2 mph - N/A Rain Light Rain
3:57 AM 44.6 °F 39.7 °F 44.6 °F 100% 29.53 in 10.0 mi SSE 9.2 mph - N/A Rain Light Rain
3:58 AM 43.7 °F 39.1 °F 43.7 °F 100% 29.56 in 10.0 mi SSE 8.1 mph - 0.02 in Rain Light Rain
4:03 AM 44.6 °F 39.7 °F 44.6 °F 100% 29.53 in 10.0 mi SSE 9.2 mph - N/A Rain Light Rain
4:18 AM 44.6 °F 40.7 °F 44.6 °F 100% 29.53 in 10.0 mi SSE 6.9 mph - N/A   Overcast
4:20 AM 44.6 °F 40.7 °F 44.6 °F 100% 29.53 in 10.0 mi SSE 6.9 mph - N/A Rain Light Rain
4:24 AM 44.6 °F 40.7 °F 44.6 °F 100% 29.53 in 10.0 mi SSE 6.9 mph - N/A Rain Light Rain
4:34 AM 42.8 °F 38.6 °F 42.8 °F 100% 29.52 in 10.0 mi South 6.9 mph - N/A Rain Light Rain
4:42 AM 42.8 °F 40.1 °F 42.8 °F 100% 29.53 in 10.0 mi South 4.6 mph - N/A   Overcast
4:47 AM 42.8 °F 40.1 °F 42.8 °F 100% 29.52 in 10.0 mi SSE 4.6 mph - N/A Rain Light Rain
4:57 AM 42.8 °F 39.3 °F 42.8 °F 100% 29.53 in 10.0 mi SSE 5.8 mph - N/A   Overcast
4:58 AM 43.3 °F 39.9 °F 43.3 °F 100% 29.56 in 10.0 mi SSE 5.8 mph - 0.01 in   Overcast
5:09 AM 42.8 °F 40.1 °F 42.8 °F 100% 29.53 in 10.0 mi SSE 4.6 mph - N/A Rain Light Rain
5:19 AM 42.8 °F 40.1 °F 42.8 °F 100% 29.52 in 10.0 mi South 4.6 mph - N/A Rain Light Rain
5:49 AM 44.6 °F 41.4 °F 44.6 °F 100% 29.53 in 8.0 mi South 5.8 mph - N/A Rain Light Rain
5:58 AM 43.9 °F 39.3 °F 43.9 °F 100% 29.56 in 6.0 mi SSE 8.1 mph - 0.02 in Rain Light Rain
6:07 AM 44.6 °F 40.7 °F 44.6 °F 100% 29.53 in 9.0 mi SSE 6.9 mph - N/A Rain Light Rain
6:12 AM 44.6 °F 40.7 °F 44.6 °F 100% 29.52 in 10.0 mi SSE 6.9 mph - N/A Rain Light Rain
6:15 AM 44.6 °F 40.2 °F 44.6 °F 100% 29.52 in 10.0 mi SSE 8.1 mph - N/A   Overcast
6:58 AM 43.3 °F 38.6 °F 43.3 °F 100% 29.56 in 10.0 mi SSE 8.1 mph - 0.00 in   Overcast
7:58 AM 43.3 °F 38.1 °F 43.3 °F 100% 29.57 in 10.0 mi SSE 9.2 mph - N/A   Overcast
8:58 AM 44.6 °F 40.2 °F 44.6 °F 100% 29.56 in 10.0 mi SSE 8.1 mph - N/A   Overcast
9:58 AM 46.0 °F 41.9 °F 46.0 °F 100% 29.58 in 10.0 mi South 8.1 mph - 0.01 in   Overcast
10:11 AM 46.4 °F 42.4 °F 46.4 °F 100% 29.55 in 10.0 mi South 8.1 mph - N/A Rain Light Rain
10:35 AM 46.4 °F 41.5 °F 46.4 °F 100% 29.55 in 10.0 mi South 10.4 mph - N/A Rain Light Rain
10:58 AM 46.4 °F 42.4 °F 46.4 °F 100% 29.59 in 10.0 mi South 8.1 mph - 0.00 in Rain Light Rain
11:26 AM 46.4 °F 41.1 °F 46.4 °F 100% 29.55 in 10.0 mi South 11.5 mph - N/A   Overcast
11:58 AM 48.4 °F - 48.4 °F 100% 29.56 in 10.0 mi South 12.7 mph - 0.01 in   Mostly Cloudy
12:38 PM 48.2 °F - 48.2 °F 100% 29.55 in 10.0 mi SSW 13.8 mph 19.6 mph N/A   Mostly Cloudy
12:53 PM 50.0 °F - 50.0 °F 100% 29.55 in 10.0 mi SSW 13.8 mph - N/A   Scattered Clouds
12:58 PM 49.3 °F - 49.3 °F 100% 29.57 in 10.0 mi SSW 15.0 mph - N/A   Scattered Clouds
1:58 PM 48.9 °F - 48.9 °F 100% 29.60 in 10.0 mi SSW 16.1 mph 23.0 mph N/A   Scattered Clouds
2:03 PM 48.2 °F - 48.2 °F 100% 29.58 in 10.0 mi SSW 16.1 mph 23.0 mph N/A   Mostly Cloudy
2:23 PM 48.2 °F - 48.2 °F 100% 29.58 in 10.0 mi SSW 16.1 mph 24.2 mph N/A   Scattered Clouds
2:58 PM 47.1 °F - 47.1 °F 100% 29.61 in 10.0 mi South 8.1 mph - N/A   Clear
3:58 PM 44.6 °F 40.2 °F 44.6 °F 100% 29.64 in 10.0 mi SSE 8.1 mph - N/A   Clear
4:58 PM 44.1 °F 40.1 °F 44.1 °F 100% 29.63 in 10.0 mi SSE 6.9 mph - N/A   Mostly Cloudy
5:58 PM 42.8 °F 38.6 °F 42.8 °F 100% 29.63 in 10.0 mi SSE 6.9 mph - N/A   Partly Cloudy
6:03 PM 42.8 °F 39.3 °F 42.8 °F 100% 29.60 in 10.0 mi SSE 5.8 mph - N/A   Scattered Clouds
6:22 PM 44.6 °F 40.7 °F 44.6 °F 100% 29.60 in 10.0 mi SSE 6.9 mph - N/A   Overcast
6:58 PM 43.5 °F 39.4 °F 43.5 °F 100% 29.63 in 10.0 mi South 6.9 mph - 0.00 in   Overcast
7:18 PM 42.8 °F 38.0 °F 42.8 °F 100% 29.60 in 10.0 mi South 8.1 mph - N/A Rain Light Rain
7:50 PM 44.6 °F 40.7 °F 44.6 °F 100% 29.59 in 10.0 mi SSE 6.9 mph - N/A   Overcast
7:52 PM 44.6 °F 40.7 °F 44.6 °F 100% 29.59 in 10.0 mi SSE 6.9 mph - N/A Rain Light Rain
7:58 PM 44.2 °F 41.0 °F 44.2 °F 100% 29.62 in 10.0 mi SE 5.8 mph - 0.00 in Rain Light Rain
8:01 PM 44.6 °F 41.4 °F 44.6 °F 100% 29.59 in 10.0 mi SE 5.8 mph - N/A   Overcast
8:58 PM 43.5 °F 39.4 °F 43.3 °F 99% 29.61 in 10.0 mi ESE 6.9 mph - 0.00 in   Mostly Cloudy
9:58 PM 44.1 °F 41.5 °F 44.1 °F 100% 29.60 in 10.0 mi South 4.6 mph - N/A   Overcast
10:31 PM 42.8 °F 38.6 °F 42.8 °F 100% 29.58 in 10.0 mi South 6.9 mph - N/A Rain Light Rain
10:45 PM 44.6 °F 37.8 °F 44.6 °F 100% 29.59 in 9.0 mi South 15.0 mph - N/A Rain Light Rain
10:58 PM 44.1 °F 35.7 °F 44.1 °F 100% 29.59 in 10.0 mi South 20.7 mph - 0.02 in Rain Light Rain
11:13 PM 44.6 °F 37.4 °F 44.6 °F 100% 29.59 in 9.0 mi South 16.1 mph - N/A Rain Heavy Rain
11:48 PM 42.8 °F 37.0 °F 42.8 °F 100% 29.57 in 10.0 mi SSE 10.4 mph - N/A Rain Light Rain
11:49 PM 42.8 °F 37.0 °F 42.8 °F 100% 29.58 in 10.0 mi SE 10.4 mph - N/A   Overcast
11:58 PM 43.2 °F 37.4 °F 43.2 °F 100% 29.60 in 10.0 mi SSE 10.4 mph - 0.08 in   Mostly Cloudy